VK2OU Weather Reports


Display with metric or nautical units.
time (UTC)temp
F
wind
direction
speed
MPH
gust
MPH
rain 1hr
in
rain 24hr
in
rain mn
in
humidity
%
barometer
mb
20260503040021 69 0.0 0.0 0.00 0.00 0.00 99
20260503035522 70 297 4.0 8.0 0.00 0.00 0.00 59
20260503034915 70 0.0 1.0 0.00 0.00 0.00 99
20260503034530 69 295 6.0 15.0 0.00 0.00 0.00 60
20260503033524 69 305 4.0 9.0 0.00 0.00 0.00 59
20260503032608 71 0.0 0.0 0.00 0.00 0.00 99
20260503032531 70 311 5.0 10.0 0.00 0.00 0.00 58
20260503031522 71 0.0 0.0 0.00 0.00 0.00 99
20260503030613 67 277 4.0 8.0 0.00 0.00 0.00 62
20260503030527 70 0.0 0.0 0.00 0.00 0.00 99
20260503025535 70 338 0.0 4.0 0.00 0.00 0.00 99
20260503025526 68 299 4.0 7.0 0.00 0.00 0.00 61
20260503024530 67 291 6.0 15.0 0.00 0.00 0.00 63
20260503024525 69 274 1.0 7.0 0.00 0.00 0.00 99
20260503023552 68 0.0 0.0 0.00 0.00 0.00 99
20260503023544 67 288 4.0 9.0 0.00 0.00 0.00 64
20260503022530 66 294 4.0 8.0 0.00 0.00 0.00 63
20260503022522 69 0.0 0.0 0.00 0.00 0.00 99
20260503021529 69 315 1.0 5.0 0.00 0.00 0.00 99
20260503021523 67 318 5.0 11.0 0.00 0.00 0.00 63
20260503020537 68 288 1.0 5.0 0.00 0.00 0.00 99
20260503020530 65 290 4.0 10.0 0.00 0.00 0.00 65
20260503015526 67 0.0 0.0 0.00 0.00 0.00 99
20260503014615 68 0.0 0.0 0.00 0.00 0.00 99
20260503014613 66 305 5.0 11.0 0.00 0.00 0.00 65
20260503013524 69 0.0 0.0 0.00 0.00 0.00 99
20260503013522 66 288 2.0 6.0 0.00 0.00 0.00 66
20260503012531 69 0.0 0.0 0.00 0.00 0.00 99
20260503011625 66 0.0 0.0 0.00 0.00 0.00 99
20260503010530 63 20 1.0 5.0 0.00 0.00 0.00 73
20260503005541 65 0.0 0.0 0.00 0.00 0.00 99
20260503005522 62 319 1.0 3.0 0.00 0.00 0.00 74
20260503004530 61 17 2.0 3.0 0.00 0.00 0.00 78
20260503004526 63 0.0 0.0 0.00 0.00 0.00 99
20260503003615 62 0.0 0.0 0.00 0.00 0.00 99
20260503003542 60 57 1.0 3.0 0.00 0.00 0.00 79
20260503002530 60 91 1.0 3.0 0.00 0.00 0.00 79
20260503002525 62 0.0 0.0 0.00 0.00 0.00 99
20260503001551 60 0.0 0.0 0.00 0.00 0.00 99
20260503001542 59 176 0.0 1.0 0.00 0.00 0.00 81
20260503000530 59 69 1.0 3.0 0.00 0.00 0.00 81
20260503000525 61 0.0 0.0 0.00 0.00 0.00 99
20260502235529 60 0.0 0.0 0.00 0.00 0.00 99
20260502235526 59 55 0.0 2.0 0.00 0.00 0.00 80
20260502234536 60 0.0 0.0 0.00 0.00 0.00 99
20260502234530 59 233 0.0 1.0 0.00 0.00 0.00 81
20260502233526 59 0.0 0.0 0.00 0.00 0.00 99
20260502233524 59 307 1.0 3.0 0.00 0.00 0.00 80
20260502232533 59 0.0 0.0 0.00 0.00 0.00 99
20260502232530 58 0.0 0.0 0.00 0.00 0.00 82
20260502231526 59 0.0 0.0 0.00 0.00 0.00 99
20260502231522 58 171 0.0 1.0 0.00 0.00 0.00 82
20260502230532 58 0.0 0.0 0.00 0.00 0.00 83
20260502225524 59 0.0 0.0 0.00 0.00 0.00 99
20260502224531 58 0.0 0.0 0.00 0.00 0.00 99
20260502223536 57 0.0 0.0 0.00 0.00 0.00 99
20260502223524 57 165 0.0 1.0 0.00 0.00 0.00 86
20260502222531 56 120 0.0 1.0 0.00 0.00 0.00 86
20260502222526 56 0.0 0.0 0.00 0.00 0.00 99
20260502221522 56 239 0.0 1.0 0.00 0.00 0.00 88
20260502220532 55 94 0.0 3.0 0.00 0.00 0.00 88
20260502215523 55 206 2.0 3.0 0.00 0.00 0.00 89
20260502215034 54 0.0 0.0 0.00 0.00 0.00 99
20260502214530 54 247 1.0 3.0 0.00 0.00 0.00 91
20260502214028 53 0.0 0.0 0.00 0.00 0.00 99
20260502213523 54 217 0.0 1.0 0.00 0.00 0.00 92
20260502213034 53 0.0 0.0 0.00 0.00 0.00 99
20260502212531 54 179 0.0 2.0 0.00 0.00 0.00 93
20260502212025 53 0.0 0.0 0.00 0.00 0.00 99
20260502211523 53 157 0.0 2.0 0.00 0.00 0.00 94
20260502211051 53 0.0 0.0 0.00 0.00 0.00 99
20260502210552 53 148 0.0 2.0 0.00 0.00 0.00 95
20260502210039 52 0.0 0.0 0.00 0.00 0.00 99
20260502205523 53 228 1.0 2.0 0.00 0.00 0.00 95
20260502205027 52 0.0 0.0 0.00 0.00 0.00 99
20260502204531 52 217 0.0 2.0 0.00 0.00 0.00 94
20260502203524 53 210 0.0 1.0 0.00 0.00 0.00 94
20260502202531 53 0.0 0.0 0.00 0.00 0.00 94
20260502201535 53 0.0 0.0 0.00 0.00 0.00 99
20260502201527 53 170 0.0 2.0 0.00 0.00 0.00 94
20260502200530 53 215 0.0 1.0 0.00 0.00 0.00 93
20260502200527 53 0.0 0.0 0.00 0.00 0.00 99
20260502195532 53 0.0 0.0 0.00 0.00 0.00 99
20260502195523 53 195 0.0 1.0 0.00 0.00 0.00 93
20260502194550 53 64 0.0 3.0 0.00 0.00 0.00 93
20260502194542 53 0.0 0.0 0.00 0.00 0.00 99
20260502193529 53 0.0 0.0 0.00 0.00 0.00 99
20260502193525 53 203 0.0 1.0 0.00 0.00 0.00 93
20260502192537 53 0.0 0.0 0.00 0.00 0.00 99
20260502192531 53 208 0.0 1.0 0.00 0.00 0.00 92
20260502191526 53 0.0 0.0 0.00 0.00 0.00 99
20260502191524 53 0.0 0.0 0.00 0.00 0.00 92
20260502190534 53 0.0 0.0 0.00 0.00 0.00 99
20260502185524 53 0.0 0.0 0.00 0.00 0.00 99
20260502184533 53 0.0 0.0 0.00 0.00 0.00 99
20260502183522 53 232 0.0 1.0 0.00 0.00 0.00 91
20260502182531 54 186 0.0 1.0 0.00 0.00 0.00 90
20260502182528 54 0.0 0.0 0.00 0.00 0.00 99
20260502181537 54 0.0 0.0 0.00 0.00 0.00 99
20260502181522 54 241 0.0 1.0 0.00 0.00 0.00 90
20260502180530 54 279 1.0 5.0 0.00 0.00 0.00 89
20260502180526 54 0.0 0.0 0.00 0.00 0.00 99
20260502163525 55 0.0 0.0 0.00 0.00 0.00 99
20260502163522 55 218 0.0 1.0 0.00 0.00 0.00 87
20260502162530 56 177 0.0 1.0 0.00 0.00 0.00 86
20260502161522 56 251 1.0 3.0 0.00 0.00 0.00 87
20260502161520 55 0.0 0.0 0.00 0.00 0.00 99
20260502160531 56 254 0.0 2.0 0.00 0.00 0.00 87
20260502151530 57 0.0 0.0 0.00 0.00 0.00 99
20260502151524 57 54 1.0 5.0 0.00 0.00 0.00 90
20260502150555 57 46 2.0 6.0 0.00 0.00 0.00 90
20260502150544 57 0.0 0.0 0.00 0.00 0.00 99
20260502130530 58 42 2.0 5.0 0.00 0.00 0.00 91
20260502130526 58 0.0 0.0 0.00 0.00 0.00 99
20260502123527 58 0.0 0.0 0.00 0.00 0.00 99
20260502123523 58 35 2.0 7.0 0.00 0.00 0.00 90
20260502122534 58 0.0 0.0 0.00 0.00 0.00 99
20260502122531 58 42 2.0 5.0 0.00 0.00 0.00 90
20260502121527 58 0.0 0.0 0.00 0.00 0.00 99
20260502120532 58 0.0 0.0 0.00 0.00 0.00 99
20260502115543 58 323 1.0 3.0 0.00 0.00 0.00 89
20260502115541 58 0.0 0.0 0.00 0.00 0.00 99
20260502113524 58 353 2.0 5.0 0.00 0.00 0.00 88
20260502112531 58 356 2.0 7.0 0.00 0.00 0.00 88
20260502111523 58 296 1.0 3.0 0.00 0.00 0.00 88
20260502110532 58 204 0.0 1.0 0.00 0.00 0.00 87
20260502105523 58 199 1.0 2.0 0.00 0.00 0.00 86
20260502104531 59 215 1.0 1.0 0.00 0.00 0.00 84
20260502104024 59 0.0 0.0 0.00 0.00 0.00 99
20260502103525 58 63 1.0 3.0 0.00 0.00 0.00 84
20260502103032 59 0.0 0.0 0.00 0.00 0.00 99
20260502102532 59 204 0.0 3.0 0.00 0.00 0.00 83
20260502101543 59 134 0.0 2.0 0.00 0.00 0.00 81
20260502100530 59 196 1.0 3.0 0.00 0.00 0.00 81
20260502091525 59 262 1.0 3.0 0.00 0.00 0.00 80
20260502091021 60 0.0 0.0 0.00 0.00 0.00 99
20260502090533 59 223 0.0 2.0 0.00 0.00 0.00 79
20260502071524 64 23 3.0 8.0 0.00 0.00 0.00 68
20260502070531 64 9 2.0 5.0 0.00 0.00 0.00 67
20260502065523 64 26 3.0 8.0 0.00 0.00 0.00 66
20260502064105 65 0.0 0.0 0.00 0.00 0.00 99
20260502063528 65 27 3.0 6.0 0.00 0.00 0.00 66
20260502062612 65 24 3.0 8.0 0.00 0.00 0.00 65
20260502061523 66 34 4.0 8.0 0.00 0.00 0.00 65
20260502061054 66 0.0 0.0 0.00 0.00 0.00 99
20260502060532 66 11 2.0 8.0 0.00 0.00 0.00 65
20260502060043 67 0.0 0.0 0.00 0.00 0.00 99
20260502055523 67 2 3.0 7.0 0.00 0.00 0.00 65
20260502055051 67 0.0 0.0 0.00 0.00 0.00 99
20260502054552 67 15 2.0 6.0 0.00 0.00 0.00 65
20260502054020 67 0.0 0.0 0.00 0.00 0.00 99
20260502053544 67 330 2.0 3.0 0.00 0.00 0.00 66
20260502053030 68 0.0 0.0 0.00 0.00 0.00 99
20260502052553 67 18 2.0 6.0 0.00 0.00 0.00 66
20260502052036 68 0.0 0.0 0.00 0.00 0.00 99
20260502051524 67 18 2.0 6.0 0.00 0.00 0.00 65
20260502051025 69 0.0 0.0 0.00 0.00 0.00 99
20260502050553 68 8 2.0 7.0 0.00 0.00 0.00 63
20260502050034 69 0.0 0.0 0.00 0.00 0.00 99
20260502045524 68 256 1.0 3.0 0.00 0.00 0.00 63
20260502045050 69 0.0 0.0 0.00 0.00 0.00 99
20260502044551 68 276 2.0 5.0 0.00 0.00 0.00 62
20260502044030 70 0.0 0.0 0.00 0.00 0.00 99
20260502043548 68 263 1.0 3.0 0.00 0.00 0.00 62
20260502043020 70 0.0 0.0 0.00 0.00 0.00 99
20260502042531 69 37 2.0 6.0 0.00 0.00 0.00 62
20260502042334 70 0.0 0.0 0.00 0.00 0.00 99
20260502041523 69 38 2.0 6.0 0.00 0.00 0.00 62
20260502041035 70 0.0 0.0 0.00 0.00 0.00 99
20260502040531 68 15 2.0 6.0 0.00 0.00 0.00 65